Regional Weather Roundup
Issued by NWS

Home | Current Version | Previous Version | Graphics & Text | Print | Product List | Glossary On
Versions: 1 2 3 4 5 6 7 8 9 10 11 12 13 14 15 16 17 18 19 20 21 22 23 24 25 26 27 28 29 30 31 32 33 34 35 36 37 38 39 40 41 42 43 44 45 46 47 48 49 50
000
ASUS43 KLMK 230110
RWRKY
KENTUCKY REGIONAL WEATHER ROUNDUP
NATIONAL WEATHER SERVICE LOUISVILLE KY
900 PM EDT TUE APR 22 2014

NOTE "FAIR" INDICATES FEW OR NO CLOUDS BELOW 12,000 FEET
WITH NO SIGNIFICANT WEATHER AND/OR OBSTRUCTIONS TO VISIBILITY.

KYZ001>023-026-027-061>063-070>075-230200-
WESTERN AND SOUTH CENTRAL KENTUCKY

CITY           SKY/WX    TMP DP  RH WIND       PRES   REMARKS
PADUCAH        CLEAR     63  37  38 N9        29.94R
HENDERSON      CLEAR     63  36  36 NW3       29.93S
OWENSBORO      CLEAR     60  38  44 NW7       29.93S
HOPKINSVILLE   CLEAR     64  43  46 N8        29.92R
BOWLING GREEN  CLEAR     65  39  38 NW8       29.90R
GLASGOW        CLEAR     62  36  37 NW6       29.89R
$$

KYZ024-025-028>034-038-045-046-053-230200-
NORTH CENTRAL KENTUCKY

CITY           SKY/WX    TMP DP  RH WIND       PRES   REMARKS
LOUISVILLE/SDF PTCLDY    64  33  31 N10       29.90R
LOUISVILLE/LOU CLEAR     64  35  34 N7        29.91R
FORT KNOX      CLEAR     60  35  38 W7        29.89R
$$

KYZ035>037-039>044-047>052-055>060-089>105-230200-
NORTHEAST KENTUCKY

CITY           SKY/WX    TMP DP  RH WIND       PRES   REMARKS
LEXINGTON      PTCLDY    59  29  31 NW10      29.89R
COVINGTON      PTCLDY    55  32  41 NW16      29.91R
FRANKFORT      PTCLDY    60  29  30 N13       29.89R
$$

KYZ054-064>069-076>088-106>120-230200-
SOUTHEAST KENTUCKY

CITY           SKY/WX    TMP DP  RH WIND       PRES   REMARKS
JACKSON        CLEAR     64  34  32 VRB7      29.84R
LONDON         CLEAR     66  43  43 NW8       29.84R
SOMERSET       PTCLDY    64  36  34 N7        29.87R
MIDDLESBORO    MOCLDY    67  53  61 NW9       29.83R
MONTICELLO     CLEAR     65  45  48 NW9       29.88R
$$




USA.gov is the U.S. government's official web portal to all federal, state and local government web resources and services.